Temperature
1 2 2 2 2 2 2 2 2 2 3 2 2 2 3 3 3 3 3 2 2 2 2 3 3 3 3 4 4 4 4 5 5 5 5 5 5 5 5 5 5 5 5 5
0 2 2 1 1 1 2 2 2 2 2 1 2 2 2 2 2 2 2 2 2 2 2 2 2 2 3 3 3 4 4 4 4 4 4 4 4 4 5 5 5 5 5 4
-1 1 1 -0 -1 -0 -0 0 0 0 0 0 0 1 0 1 1 1 1 1 1 1 1 1 1 2 2 3 3 3 3 3 3 3 3 3 4 4 4 4 4 4 4 4
-1 -0 -1 -1 -1 -1 -1 -1 -1 -1 -1 -1 -0 -0 0 0 -0 -0 -0 -0 -0 0 0 0 1 1 2 2 2 3 3 3 3 3 3 3 3 3 3 3 3 3 3 3
-2 -1 -1 -2 -2 -2 -2 -2 -2 -2 -2 -1 -1 -1 -0 -0 -1 -1 -1 -1 -1 -0 -0 -0 0 1 1 2 2 2 2 2 2 2 2 2 2 2 3 3 3 3 3 3
-2 -2 -3 -3 -2 -2 -2 -2 -3 -3 -3 -2 -2 -2 -2 -2 -2 -2 -2 -2 -1 -1 -1 -1 -0 0 1 1 1 1 1 1 1 2 2 2 2 2 2 2 2 2 2 2
-3 -3 -3 -4 -3 -2 -3 -4 -4 -3 -4 -3 -3 -3 -3 -3 -3 -3 -3 -2 -2 -2 -1 -1 -1 -0 0 0 1 1 1 1 1 1 1 1 1 1 1 1 2 2 2 2
-4 -4 -4 -4 -4 -4 -4 -4 -4 -4 -4 -4 -4 -4 -4 -4 -4 -4 -4 -3 -3 -2 -2 -2 -2 -1 -1 -1 -0 -0 0 0 0 0 1 1 1 1 1 1 1 1 1 1
-4 -4 -4 -4 -5 -5 -5 -5 -5 -5 -5 -5 -5 -5 -5 -4 -4 -4 -4 -4 -3 -3 -3 -3 -2 -2 -2 -1 -1 -1 -1 -0 -0 -0 -0 -0 0 0 0 0 0 0 0 0
-4 -4 -5 -5 -5 -6 -6 -6 -6 -6 -6 -6 -6 -6 -5 -5 -5 -5 -5 -5 -4 -4 -4 -3 -3 -3 -3 -2 -2 -2 -1 -1 -1 -1 -1 -1 -1 -0 -0 -0 -0 -0 -0 -0
-5 -5 -5 -5 -6 -6 -7 -7 -7 -7 -6 -6 -6 -6 -6 -6 -6 -6 -5 -5 -5 -5 -5 -4 -4 -4 -3 -3 -3 -2 -2 -2 -2 -2 -1 -1 -1 -1 -1 -1 -1 -1 -1 -1
-7 -6 -7 -7 -7 -7 -7 -7 -7 -7 -7 -7 -7 -7 -6 -6 -6 -6 -6 -6 -6 -5 -5 -5 -5 -4 -4 -3 -3 -3 -3 -3 -3 -2 -2 -2 -2 -2 -2 -2 -2 -1 -1 -1
-7 -7 -7 -7 -7 -8 -8 -8 -8 -8 -8 -8 -7 -7 -7 -7 -7 -7 -6 -6 -6 -6 -6 -6 -5 -5 -4 -4 -4 -4 -4 -4 -3 -3 -3 -3 -2 -2 -2 -2 -2 -2 -2 -2
-8 -8 -8 -8 -8 -8 -9 -9 -8 -8 -8 -8 -8 -8 -7 -7 -7 -7 -7 -7 -7 -6 -6 -6 -6 -5 -5 -5 -4 -4 -4 -4 -4 -4 -3 -3 -3 -3 -3 -3 -3 -3 -3 -2
-8 -9 -9 -9 -9 -9 -9 -9 -9 -9 -9 -8 -8 -8 -8 -8 -8 -7 -7 -7 -7 -7 -7 -6 -6 -6 -6 -5 -5 -5 -5 -5 -4 -4 -4 -4 -4 -4 -4 -4 -4 -3 -3 -3
-9 -9 -9 -9 -9 -9 -10 -10 -10 -10 -9 -9 -9 -9 -9 -8 -8 -8 -8 -8 -8 -7 -7 -7 -7 -7 -6 -6 -6 -5 -6 -5 -5 -5 -5 -5 -4 -4 -4 -4 -4 -4 -4 -4
-10 -10 -10 -10 -10 -10 -10 -10 -10 -10 -10 -10 -9 -9 -9 -9 -8 -8 -8 -8 -8 -8 -8 -8 -7 -7 -7 -7 -6 -6 -6 -6 -6 -6 -5 -5 -5 -5 -5 -5 -5 -5 -5 -5
-10 -10 -10 -11 -11 -11 -11 -11 -10 -10 -10 -10 -10 -10 -9 -9 -9 -9 -9 -9 -8 -8 -8 -8 -8 -8 -7 -7 -7 -7 -7 -6 -6 -6 -6 -6 -6 -5 -5 -5 -5 -5 -5 -5
-10 -10 -11 -11 -11 -11 -11 -11 -11 -11 -10 -10 -10 -10 -10 -10 -10 -9 -9 -9 -9 -9 -9 -9 -8 -8 -8 -8 -7 -7 -7 -7 -7 -7 -6 -6 -6 -6 -6 -6 -6 -6 -6 -6
-10 -11 -11 -11 -11 -11 -11 -11 -11 -11 -11 -11 -11 -10 -10 -10 -10 -10 -10 -10 -10 -10 -9 -9 -9 -8 -8 -8 -8 -8 -7 -7 -7 -7 -7 -7 -7 -6 -6 -6 -6 -6 -6 -6
-11 -11 -11 -11 -11 -11 -11 -11 -11 -11 -11 -11 -11 -11 -11 -11 -11 -10 -10 -10 -10 -10 -10 -9 -9 -9 -9 -9 -8 -8 -8 -8 -8 -8 -8 -8 -7 -7 -7 -7 -7 -7 -7 -7
-11 -11 -11 -12 -12 -12 -12 -12 -12 -12 -11 -11 -11 -11 -11 -11 -11 -11 -11 -11 -10 -10 -10 -10 -10 -10 -9 -9 -9 -9 -9 -9 -8 -8 -8 -8 -8 -8 -8 -8 -7 -7 -7 -7
-12 -12 -12 -12 -12 -12 -12 -12 -12 -12 -12 -12 -12 -12 -12 -12 -11 -11 -11 -11 -11 -10 -10 -10 -10 -10 -10 -10 -9 -9 -9 -9 -9 -9 -9 -9 -9 -9 -8 -8 -8 -8 -8 -8
-12 -12 -12 -12 -12 -12 -12 -12 -12 -12 -12 -12 -12 -12 -12 -12 -11 -11 -12 -11 -11 -11 -11 -10 -10 -10 -10 -10 -10 -10 -9 -9 -9 -9 -9 -9 -9 -9 -9 -9 -9 -8 -8 -8
-12 -12 -12 -12 -12 -13 -13 -12 -12 -12 -12 -12 -12 -12 -12 -12 -12 -12 -12 -11 -11 -11 -11 -11 -11 -10 -10 -10 -10 -10 -10 -10 -10 -10 -9 -9 -9 -9 -9 -9 -9 -9 -9 -9
-12 -12 -13 -13 -13 -13 -13 -13 -13 -13 -13 -13 -12 -12 -12 -12 -12 -12 -12 -12 -11 -11 -11 -11 -11 -11 -11 -10 -10 -10 -10 -10 -10 -10 -10 -10 -10 -10 -9 -9 -9 -9 -9 -9
-13 -13 -13 -13 -13 -13 -13 -13 -13 -13 -13 -13 -13 -13 -13 -13 -12 -12 -12 -12 -12 -12 -11 -11 -11 -11 -11 -11 -11 -11 -10 -10 -10 -10 -10 -10 -10 -10 -10 -10 -9 -9 -9 -9
Wind_Speed
10 10 9 9 10 7 5 5 4 5 5 6 6 6 6 6 6 7 7 6 5 5 4 3 3 3 2 2 1 1 2 2 2 2 2 2 3 3 3 4 5 5 5 5
9 9 6 7 8 7 6 6 5 5 5 6 7 7 7 7 7 7 7 7 6 6 5 5 4 3 2 2 1 1 1 1 1 2 2 2 2 3 3 3 4 4 5 5
6 7 6 2 6 6 4 5 4 4 5 8 8 8 8 8 7 6 7 7 7 6 5 5 4 4 3 2 1 1 1 1 1 2 2 2 2 2 3 3 3 4 4 4
5 5 2 2 6 7 5 5 8 7 8 8 8 8 6 6 7 7 8 7 6 6 5 5 4 4 3 3 2 1 0 0 1 1 2 2 2 2 2 2 2 2 3 3
3 3 1 3 7 8 5 4 9 9 10 11 11 7 5 9 9 8 8 7 6 5 5 4 4 3 3 3 2 2 2 1 0 0 1 1 2 2 1 2 2 2 2 2
3 3 2 5 11 11 4 2 11 13 12 12 11 7 7 11 11 10 9 7 6 6 5 4 4 3 3 3 2 2 2 2 1 0 1 1 1 1 1 2 2 2 2 2
4 2 0 7 12 8 3 6 12 12 11 11 8 6 9 11 10 9 8 8 7 6 5 4 5 4 3 4 3 3 3 2 1 0 0 1 1 1 1 1 2 2 2 1
3 2 3 9 8 5 6 8 10 10 10 10 9 9 9 9 9 9 8 8 7 6 5 5 5 4 4 4 4 4 3 2 2 1 0 0 1 1 1 2 2 1 1 1
2 1 3 6 5 6 7 9 10 10 11 10 10 9 10 8 8 7 8 7 7 6 5 6 5 4 4 4 4 4 3 3 2 1 1 0 1 2 1 2 2 2 2 1
3 3 6 6 7 8 9 9 10 10 10 10 9 10 9 7 7 7 7 7 6 6 6 6 6 5 5 5 4 3 3 3 3 2 1 0 1 1 1 2 2 2 2 2
4 4 6 6 9 10 11 10 11 11 10 9 9 9 8 7 7 7 7 6 6 5 6 7 7 6 6 6 5 4 4 3 3 2 2 1 1 0 0 1 2 2 2 2
4 6 6 8 9 11 11 11 11 11 11 9 8 8 8 7 6 6 7 6 6 7 7 7 7 7 7 6 5 4 4 4 3 2 2 2 1 2 3 1 1 0 1 2
4 7 6 8 9 10 10 11 11 10 10 9 9 8 7 7 7 7 7 7 7 7 7 7 7 7 7 7 6 5 4 4 3 3 2 2 2 1 1 3 3 1 1 2
6 6 6 8 8 10 10 11 10 10 9 9 9 8 8 7 8 8 8 7 7 7 7 7 7 8 8 7 6 5 5 4 4 3 2 2 2 1 1 0 1 2 2 1
7 7 6 8 8 9 9 9 9 10 10 10 9 8 8 8 8 8 8 7 7 7 7 7 8 8 8 7 7 6 5 4 3 3 2 2 2 2 1 1 1 1 1 1
8 7 7 8 9 9 9 9 9 9 9 9 9 9 9 8 7 7 7 7 7 8 8 8 8 8 8 8 7 5 4 6 5 3 2 2 2 2 2 2 2 1 1 1
7 8 9 10 10 10 9 8 8 8 9 9 9 9 9 8 8 8 8 7 7 6 7 7 8 9 8 8 6 5 4 5 7 4 3 3 2 2 2 2 2 2 2 2
5 6 7 7 8 9 10 9 8 8 8 9 9 8 8 8 8 8 8 7 7 7 7 7 8 8 8 8 6 5 4 4 4 4 3 3 3 2 2 2 2 2 2 3
5 6 6 7 7 7 7 8 7 7 8 8 8 8 7 7 7 7 7 7 7 7 8 8 11 9 8 9 8 5 5 5 4 4 3 4 4 3 2 2 2 2 2 2
6 6 7 7 7 7 7 7 6 6 7 7 7 7 8 8 8 7 7 6 5 5 6 8 8 7 7 8 9 5 5 5 4 4 4 3 3 3 3 3 3 2 2 2
6 7 7 7 7 7 7 7 6 7 7 6 6 7 7 8 8 7 6 6 6 7 8 9 7 6 7 8 8 5 5 5 5 4 4 3 3 3 3 3 3 3 3 2
5 6 7 7 7 7 7 6 6 7 7 7 7 7 7 8 8 7 6 5 6 9 7 5 5 8 9 9 5 5 5 5 5 4 4 3 3 3 3 3 3 3 3 2
5 6 6 7 7 7 7 6 6 6 6 7 7 7 7 6 6 6 7 6 6 9 7 5 8 11 11 7 5 5 5 5 4 4 4 3 3 3 3 3 3 3 3 3
5 5 6 6 6 6 7 7 6 6 6 6 6 6 6 6 6 5 5 9 12 11 7 8 12 12 10 5 4 4 4 4 4 4 4 3 3 3 3 3 3 3 3 3
5 5 5 6 6 5 6 7 7 6 6 5 6 6 5 4 5 6 6 7 11 10 7 9 12 11 7 5 5 4 4 4 4 4 3 3 3 3 3 3 3 3 3 3
4 4 4 5 5 5 5 5 5 6 6 7 6 6 5 5 5 5 5 6 8 9 7 6 7 7 5 5 5 5 5 5 5 4 4 4 4 4 3 3 4 3 3 3
5 4 4 4 4 4 5 5 5 6 6 7 7 7 6 6 6 6 6 6 6 6 6 6 5 5 5 5 5 5 5 4 4 4 4 4 3 3 3 4 3 3 3 3
Wind_Direction
286 295 305 308 308 309 289 272 263 291 310 339 358 357 357 7 15 21 21 14 11 9 6 9 10 12 24 27 39 74 121 139 162 167 162 167 174 180 181 185 190 187 187 189
290 287 294 311 329 323 303 297 276 293 307 351 347 354 0 4 8 6 3 359 0 0 359 356 353 348 359 18 36 77 119 159 174 166 156 168 179 181 181 187 186 179 184 185
288 297 299 319 355 349 354 356 340 322 328 348 348 349 349 348 355 360 354 354 353 346 344 342 340 345 349 357 17 68 116 146 175 171 173 181 179 172 182 187 184 187 187 182
287 302 253 61 27 6 359 23 18 7 355 349 339 330 341 2 360 351 346 345 343 339 337 336 339 342 344 355 5 30 73 168 161 159 177 180 173 184 193 182 179 196 193 187
289 287 278 12 355 342 323 334 8 0 354 349 341 337 354 9 0 347 341 339 334 331 328 332 339 341 347 350 1 20 18 2 331 174 169 168 179 195 191 166 174 184 176 183
295 297 328 345 332 327 304 314 5 357 349 348 350 341 330 348 347 344 342 341 338 340 342 348 345 344 350 355 13 12 360 352 343 309 175 184 203 205 198 179 186 180 181 191
301 281 352 346 336 352 16 322 337 342 342 342 337 318 315 329 335 337 338 340 342 348 351 353 352 357 4 7 2 356 1 359 355 8 147 176 189 186 185 184 167 171 181 190
330 324 322 353 2 11 330 329 339 339 338 336 330 325 327 329 332 338 342 345 348 353 357 359 1 7 12 3 353 358 3 1 358 18 58 98 159 174 179 174 169 178 179 198
325 314 344 358 6 352 348 339 340 338 332 330 328 329 332 332 334 338 340 345 349 357 1 4 8 11 8 354 354 359 5 358 353 7 36 163 176 180 183 184 185 196 200 215
307 345 347 355 6 359 353 345 338 335 332 333 330 330 334 339 340 343 344 349 354 5 7 4 5 7 2 356 354 4 5 355 353 7 23 68 165 187 188 192 193 198 207 224
302 340 343 352 357 351 346 345 342 338 335 332 330 330 337 341 344 348 351 355 358 3 4 0 0 3 3 360 2 10 7 0 357 4 9 21 36 28 209 221 212 206 213 210
320 336 323 319 337 345 345 344 344 343 341 341 339 337 342 345 351 355 357 360 2 6 8 3 2 2 1 2 6 9 5 360 354 354 1 10 24 26 28 27 34 330 259 247
310 321 315 316 332 344 343 340 341 343 344 345 346 350 353 353 354 358 2 4 4 3 5 2 3 3 1 360 3 7 1 352 348 351 356 356 356 9 12 19 23 359 311 288
341 339 328 334 331 337 337 337 338 342 348 348 350 354 355 355 356 360 359 357 357 2 5 4 3 1 357 358 -0 3 0 355 355 354 352 350 347 344 348 357 343 340 337 322
347 339 321 325 332 336 339 341 343 346 348 350 351 353 354 354 353 353 353 353 358 3 3 2 1 356 355 358 359 358 356 356 358 356 356 356 355 355 359 0 355 344 354 351
328 330 337 340 340 340 342 345 343 341 343 344 346 347 346 347 347 350 354 357 359 356 355 357 355 352 354 357 357 356 357 356 353 355 360 3 4 359 356 359 355 350 352 346
335 336 338 337 336 336 337 337 335 334 336 338 338 338 341 347 351 352 353 354 355 353 354 356 353 352 354 356 355 352 351 354 354 355 359 358 1 357 350 350 347 349 348 341
324 320 323 325 328 329 332 334 333 333 332 331 334 337 342 346 345 342 343 349 355 357 359 358 356 355 355 355 357 354 352 351 352 350 350 354 354 349 344 344 346 347 348 347
334 332 332 333 331 330 330 330 330 328 327 331 336 337 336 337 338 338 343 351 354 353 351 354 354 357 353 352 352 351 350 350 350 349 348 347 350 353 353 347 344 343 341 343
337 337 336 336 337 336 333 330 328 330 333 336 339 341 343 343 341 340 344 346 346 341 341 345 349 350 349 347 349 348 349 348 348 348 348 350 349 349 349 344 340 338 337 337
338 339 339 338 336 336 336 337 338 336 336 339 340 338 336 334 337 337 339 338 339 342 345 345 349 345 344 345 347 350 349 350 349 347 345 344 344 344 345 345 343 339 337 339
336 337 336 336 336 336 336 335 335 333 335 336 335 334 334 335 336 335 331 325 330 337 344 340 341 340 343 345 347 348 347 345 344 343 343 341 340 340 342 345 342 337 339 343
332 332 332 332 331 326 326 331 332 330 329 329 329 329 329 327 327 326 327 331 334 334 338 331 334 338 342 347 344 344 343 340 338 337 336 336 335 334 334 335 334 334 334 335
328 328 325 322 321 325 329 330 329 326 319 317 321 323 322 323 322 320 317 325 333 332 333 331 337 340 344 346 339 337 335 332 329 328 330 332 332 330 328 327 325 326 324 324
323 319 319 323 327 326 324 326 326 325 324 327 327 326 324 318 315 320 322 324 328 331 332 333 338 341 345 337 334 331 329 324 321 323 328 328 325 321 318 318 316 313 312 312
316 314 311 309 308 312 319 324 325 326 328 328 329 331 329 325 319 320 321 325 327 331 334 330 330 333 334 330 327 326 324 324 327 329 325 319 315 315 314 315 314 309 307 308
316 315 316 318 324 328 325 320 319 322 325 323 322 324 325 325 325 326 326 327 329 329 328 328 329 329 327 326 324 323 324 324 324 323 322 320 317 312 310 308 305 305 306 305
Height
1460 1456 1454 1453 1451 1448 1449 1449 1450 1445 1445 1445 1444 1444 1443 1441 1440 1439 1439 1439 1438 1437 1437 1436 1436 1435 1435 1436 1437 1438 1439 1440 1442 1444 1446 1448 1450 1451 1453 1455 1456 1457 1459 1461
1461 1454 1452 1452 1452 1450 1448 1447 1447 1446 1446 1447 1446 1445 1444 1443 1441 1440 1439 1439 1438 1438 1436 1435 1435 1435 1434 1434 1435 1436 1437 1438 1440 1441 1443 1445 1447 1448 1449 1451 1452 1454 1455 1457
1461 1453 1451 1456 1459 1457 1455 1453 1451 1451 1452 1449 1447 1446 1445 1443 1442 1441 1440 1439 1438 1437 1436 1434 1434 1433 1433 1433 1433 1434 1435 1436 1437 1438 1440 1442 1443 1444 1446 1447 1449 1450 1451 1453
1463 1459 1463 1466 1461 1460 1458 1456 1456 1455 1453 1451 1449 1446 1444 1443 1442 1440 1439 1437 1436 1435 1434 1433 1432 1432 1431 1431 1432 1432 1433 1434 1435 1436 1437 1438 1440 1441 1442 1444 1445 1446 1448 1449
1466 1462 1460 1464 1463 1463 1462 1459 1459 1457 1454 1452 1448 1443 1442 1442 1442 1440 1439 1436 1435 1433 1432 1430 1430 1429 1429 1429 1429 1430 1430 1431 1432 1433 1434 1435 1436 1437 1439 1440 1442 1443 1444 1445
1468 1466 1469 1473 1466 1460 1459 1460 1461 1459 1456 1453 1450 1449 1446 1444 1442 1439 1437 1435 1433 1431 1429 1428 1427 1427 1427 1427 1427 1427 1428 1429 1430 1431 1431 1432 1433 1434 1436 1437 1438 1440 1441 1442
1471 1470 1471 1474 1467 1461 1469 1470 1465 1461 1458 1455 1453 1452 1449 1444 1441 1439 1436 1433 1431 1429 1428 1427 1426 1425 1425 1425 1425 1426 1426 1427 1427 1428 1428 1429 1430 1431 1433 1434 1435 1436 1437 1438
1476 1477 1479 1474 1470 1473 1474 1469 1465 1462 1459 1455 1452 1449 1446 1443 1440 1437 1434 1432 1430 1428 1426 1425 1425 1424 1423 1423 1423 1423 1424 1424 1424 1425 1426 1426 1427 1428 1429 1431 1431 1432 1433 1434
1481 1483 1479 1477 1475 1475 1472 1469 1465 1462 1458 1454 1451 1447 1444 1441 1438 1436 1433 1431 1429 1427 1425 1424 1424 1423 1422 1422 1422 1421 1421 1422 1422 1422 1423 1424 1424 1425 1426 1427 1428 1429 1430 1431
1480 1478 1478 1477 1475 1473 1471 1468 1464 1461 1457 1453 1450 1446 1443 1440 1438 1435 1433 1431 1428 1426 1425 1423 1423 1422 1422 1421 1420 1420 1420 1420 1420 1420 1420 1421 1422 1422 1423 1424 1425 1426 1427 1427
1480 1480 1478 1476 1475 1473 1469 1465 1462 1458 1455 1452 1449 1445 1442 1439 1437 1435 1432 1430 1428 1426 1424 1423 1422 1421 1420 1420 1419 1418 1418 1418 1418 1418 1418 1418 1419 1420 1420 1421 1422 1423 1424 1425
1486 1484 1482 1478 1475 1472 1468 1464 1461 1457 1453 1450 1448 1444 1442 1439 1437 1434 1432 1430 1428 1426 1424 1423 1421 1420 1419 1419 1418 1417 1416 1416 1416 1416 1416 1416 1416 1417 1417 1419 1420 1421 1422 1422
1486 1483 1480 1478 1474 1471 1468 1464 1461 1457 1453 1450 1447 1444 1441 1439 1437 1434 1432 1430 1428 1426 1424 1422 1421 1420 1419 1418 1417 1416 1416 1415 1415 1414 1414 1414 1414 1414 1415 1416 1417 1418 1418 1419
1484 1481 1478 1476 1473 1470 1467 1463 1460 1456 1453 1450 1447 1444 1442 1439 1437 1435 1432 1431 1428 1426 1424 1423 1421 1420 1418 1417 1416 1415 1414 1414 1413 1413 1413 1413 1413 1413 1413 1413 1413 1414 1415 1416
1483 1481 1478 1474 1471 1468 1465 1462 1458 1455 1452 1449 1447 1444 1442 1439 1437 1435 1433 1431 1429 1426 1424 1423 1421 1420 1418 1417 1416 1414 1414 1413 1412 1412 1411 1411 1412 1412 1412 1412 1411 1412 1412 1413
1481 1478 1476 1473 1470 1467 1463 1460 1457 1454 1452 1449 1447 1444 1442 1440 1438 1436 1434 1431 1429 1427 1425 1423 1421 1420 1418 1416 1415 1414 1413 1412 1411 1411 1410 1410 1410 1410 1410 1410 1410 1410 1410 1410
1479 1476 1473 1471 1468 1465 1463 1460 1457 1454 1452 1449 1447 1444 1442 1439 1437 1435 1433 1431 1429 1427 1425 1423 1421 1419 1418 1416 1415 1414 1412 1411 1411 1410 1410 1409 1409 1409 1409 1408 1408 1408 1409 1409
1479 1477 1474 1471 1468 1464 1461 1458 1456 1454 1451 1449 1446 1443 1441 1439 1436 1434 1433 1430 1428 1426 1425 1423 1421 1420 1418 1416 1415 1413 1412 1411 1410 1409 1409 1408 1408 1408 1408 1407 1407 1407 1407 1407
1477 1475 1472 1470 1467 1464 1460 1457 1455 1453 1450 1448 1445 1443 1440 1438 1436 1434 1432 1429 1427 1425 1424 1423 1421 1419 1417 1416 1414 1413 1412 1410 1409 1409 1408 1407 1407 1407 1406 1406 1406 1405 1405 1405
1475 1473 1470 1468 1465 1462 1459 1456 1454 1451 1449 1447 1444 1442 1439 1437 1435 1433 1431 1429 1428 1426 1424 1422 1420 1418 1417 1415 1413 1412 1410 1409 1408 1407 1407 1406 1405 1405 1405 1404 1404 1404 1403 1403
1473 1471 1469 1466 1464 1461 1458 1455 1452 1450 1448 1445 1443 1441 1438 1436 1434 1432 1430 1428 1427 1426 1423 1422 1420 1418 1416 1414 1412 1411 1409 1408 1407 1406 1405 1405 1404 1403 1403 1403 1402 1402 1402 1401
1472 1470 1467 1465 1462 1460 1457 1455 1452 1449 1447 1445 1443 1440 1438 1436 1434 1432 1430 1429 1427 1425 1423 1421 1419 1417 1415 1413 1411 1410 1408 1407 1406 1405 1404 1403 1403 1402 1401 1401 1400 1400 1400 1399
1470 1468 1466 1464 1461 1459 1456 1454 1451 1449 1446 1444 1442 1440 1437 1435 1433 1431 1429 1428 1426 1424 1422 1420 1418 1416 1414 1412 1410 1409 1407 1406 1405 1404 1403 1402 1401 1401 1400 1399 1399 1398 1398 1397
1469 1466 1464 1462 1460 1457 1455 1453 1451 1448 1446 1443 1441 1439 1437 1434 1432 1431 1429 1426 1424 1422 1420 1418 1417 1415 1413 1411 1409 1408 1406 1405 1404 1403 1402 1401 1400 1399 1399 1398 1397 1397 1396 1396
1467 1465 1463 1461 1458 1456 1454 1452 1449 1447 1445 1442 1440 1438 1436 1434 1432 1429 1427 1425 1423 1421 1419 1417 1415 1413 1411 1410 1408 1406 1405 1404 1403 1401 1400 1399 1398 1398 1397 1397 1396 1395 1394 1394
1465 1463 1461 1459 1457 1455 1453 1450 1448 1446 1443 1441 1438 1437 1434 1432 1430 1428 1426 1424 1422 1419 1417 1415 1414 1412 1410 1408 1407 1405 1404 1402 1401 1400 1399 1398 1397 1396 1396 1395 1394 1393 1393 1392
1463 1461 1459 1457 1456 1454 1451 1449 1447 1444 1442 1440 1437 1435 1433 1431 1429 1426 1424 1422 1420 1418 1416 1414 1412 1411 1409 1407 1405 1404 1402 1401 1400 1399 1398 1397 1396 1395 1394 1393 1392 1392 1391 1390